EW3448 Victoria MT current weather conditions

sailwx.info

Wind from 122 at 3 knots gusting 12

Air temperature 14.4° C
Dewpoint 12.8° C

Last reported at 2020-Jan-21 06:02 UTC.
Time now 2020-Jan-21 06:32 UTC

Location: N 36°03' E 014°15'.
View on Google Maps.

See reports from other nearby stations

  
Tides and Currents Weather Stations Pressure Air Temp Water Temp Dewpoint Dewpoint Depression Visibility Wind Speed Wind Dir Waves Ship Positions
date/time (UTC)wind fromknots sea level pressurealtimeterstation pressurevisibilityair tempwater tempwave heightnotes
2020-Jan-21 06:02 122 3 gusting 12 14.4
2020-Jan-21 05:48 125 4 gusting 9 14.4
2020-Jan-21 05:32 153 4 gusting 9 14.4
2020-Jan-21 05:16 130 4 gusting 10 13.9
2020-Jan-21 05:02 153 3 gusting 19 13.9
2020-Jan-21 04:47 151 2 gusting 11 13.9
2020-Jan-21 04:33 141 5 gusting 10 13.9
2020-Jan-21 04:16 146 5 gusting 15 14.4
2020-Jan-21 04:01 123 6 gusting 10 14.4
2020-Jan-21 03:47 137 4 gusting 10 14.4
2020-Jan-21 03:32 120 3 gusting 12 14.4
2020-Jan-21 03:17 122 6 gusting 10 14.4
2020-Jan-21 03:02 103 4 gusting 13 14.4
2020-Jan-21 02:46 117 4 gusting 9 14.4
2020-Jan-21 02:31 117 3 gusting 8 14.4
2020-Jan-21 02:16 117 2 gusting 9 14.4
2020-Jan-21 02:02 121 4 gusting 8 14.4
2020-Jan-21 01:46 112 4 gusting 8 14.4
2020-Jan-21 01:31 110 3 gusting 9 13.9
2020-Jan-21 01:16 109 4 gusting 11 13.9
2020-Jan-21 01:02 108 3 gusting 9 13.9
2020-Jan-21 00:46 115 3 gusting 9 13.9
2020-Jan-21 00:31 119 3 gusting 10 13.9
2020-Jan-21 00:16 105 4 gusting 12 13.9
2020-Jan-21 00:01 115 3 gusting 10 13.9
2020-Jan-20 23:46 109 5 gusting 10 13.9
2020-Jan-20 23:31 105 4 gusting 10 13.9
2020-Jan-20 23:16 108 5 gusting 12 13.9
2020-Jan-20 23:01 111 5 gusting 12 13.9
2020-Jan-20 22:45 052 6 gusting 11 13.9
2020-Jan-20 22:30 122 5 gusting 11 13.9
2020-Jan-20 22:15 115 5 gusting 10 13.9
2020-Jan-20 22:01 115 3 gusting 11 13.9
2020-Jan-20 21:45 112 4 gusting 10 13.3
2020-Jan-20 21:30 105 2 gusting 7 13.9
2020-Jan-20 21:15 116 3 gusting 9 13.9
2020-Jan-20 21:01 105 2 gusting 10 13.9
2020-Jan-20 20:46 108 2 gusting 7 13.3
2020-Jan-20 20:30 104 2 gusting 9 13.9
2020-Jan-20 20:15 112 5 gusting 8 13.9
2020-Jan-20 20:00 108 4 gusting 9 13.9
2020-Jan-20 19:45 116 4 gusting 14 13.9
2020-Jan-20 19:30 115 2 gusting 8 13.9
2020-Jan-20 19:15 114 2 gusting 9 13.9
2020-Jan-20 19:00 113 5 gusting 11 13.9
2020-Jan-20 18:45 115 6 gusting 12 13.9
2020-Jan-20 18:30 122 5 gusting 12 13.9
2020-Jan-20 18:15 120 5 gusting 13 13.9
2020-Jan-20 17:47 096 6 gusting 10 14.4
2020-Jan-20 17:45 094 6 gusting 10 14.4
2020-Jan-20 17:32 113 6 gusting 15 13.9
2020-Jan-20 17:18 103 5 gusting 12 13.9
2020-Jan-20 17:03 117 5 gusting 13 13.9
2020-Jan-20 16:48 115 6 gusting 14 13.9
2020-Jan-20 16:33 105 5 gusting 13 14.4
2020-Jan-20 16:17 101 6 gusting 12 14.4
2020-Jan-20 16:02 126 5 gusting 11 14.4
2020-Jan-20 15:47 115 6 gusting 13 14.4
2020-Jan-20 15:32 116 5 gusting 17 14.4
2020-Jan-20 15:19 117 7 gusting 14 15.0
2020-Jan-20 15:03 108 7 gusting 14 15.0
2020-Jan-20 14:46 110 8 gusting 14 15.0
2020-Jan-20 14:31 106 7 gusting 15 15.6
2020-Jan-20 14:16 113 5 gusting 18 15.6
2020-Jan-20 14:01 105 6 gusting 13 15.6
2020-Jan-20 13:47 101 7 gusting 14 15.6
2020-Jan-20 13:31 103 7 gusting 15 15.6
2020-Jan-20 13:16 096 6 gusting 13 15.6
2020-Jan-20 13:01 101 7 gusting 13 15.6
2020-Jan-20 12:47 122 6 gusting 14 15.6
2020-Jan-20 12:32 124 7 gusting 16 15.6
2020-Jan-20 12:16 111 5 gusting 14 15.6
2020-Jan-20 12:03 120 6 gusting 16 16.1
2020-Jan-20 11:46 122 7 gusting 14 16.1
2020-Jan-20 11:32 103 6 gusting 15 16.1
2020-Jan-20 11:15 112 6 gusting 13 15.6
2020-Jan-20 11:00 127 5 gusting 12 15.0
2020-Jan-20 10:45 143 5 gusting 10 14.4
2020-Jan-20 10:31 131 2 gusting 10 14.4
2020-Jan-20 10:00 122 4 gusting 11 14.4
2020-Jan-20 09:46 122 6 gusting 12 14.4
2020-Jan-20 09:30 129 3 gusting 10 15.0
2020-Jan-20 09:16 136 5 gusting 14 14.4
2020-Jan-20 09:00 122 6 gusting 13 14.4
2020-Jan-20 08:45 133 6 gusting 11 14.4
2020-Jan-20 08:30 127 6 gusting 11 14.4
2020-Jan-20 08:15 125 6 gusting 13 14.4
2020-Jan-20 08:00 127 6 gusting 11 14.4
2020-Jan-20 07:45 116 6 gusting 11 13.9
2020-Jan-20 07:30 119 5 gusting 10 13.9
2020-Jan-20 07:15 120 4 gusting 10 13.9
2020-Jan-20 07:00 124 5 gusting 10 13.3
2020-Jan-20 06:47 134 5 gusting 11 13.3
2020-Jan-20 06:31 120 4 gusting 10 13.3
2020-Jan-20 06:16 127 5 gusting 13 13.3
2020-Jan-20 06:01 112 4 gusting 10 13.3
2020-Jan-20 05:46 129 6 gusting 12 13.3
2020-Jan-20 05:32 129 6 gusting 12 13.3
2020-Jan-20 05:17 110 4 gusting 9 13.3
2020-Jan-20 05:02 115 6 gusting 13 13.3
2020-Jan-20 04:46 127 5 gusting 11 13.3
2020-Jan-20 04:32 115 5 gusting 12 13.3
2020-Jan-20 04:16 117 6 gusting 13 13.3
2020-Jan-20 04:02 121 5 gusting 10 13.3
2020-Jan-20 03:48 122 2 gusting 10 13.3
2020-Jan-20 03:32 120 5 gusting 10 13.3
2020-Jan-20 03:18 120 3 gusting 10 13.3
2020-Jan-20 03:02 120 5 gusting 10 13.3
2020-Jan-20 02:45 115 3 gusting 8 13.3
2020-Jan-20 02:31 136 2 gusting 10 12.8
2020-Jan-20 02:16 127 4 gusting 11 12.8
2020-Jan-20 02:00 121 3 gusting 9 12.8
2020-Jan-20 01:46 128 0 gusting 8 12.8
2020-Jan-20 01:32 118 1 gusting 10 12.8
2020-Jan-20 01:16 143 3 gusting 8 12.8
2020-Jan-20 01:01 129 3 gusting 6 12.8
2020-Jan-20 00:45 136 0 gusting 9 12.8
2020-Jan-20 00:30 129 0 gusting 5 12.8
2020-Jan-20 00:15 129 1 gusting 6 12.2
2020-Jan-20 00:00 141 0 gusting 3 12.2
2020-Jan-19 23:46 143 2 gusting 6 12.8
2020-Jan-19 23:31 186 0 gusting 5 12.2
2020-Jan-19 23:15 192 12.2
2020-Jan-19 23:00 192 0 gusting 3 12.2
2020-Jan-19 22:46 195 12.2
2020-Jan-19 22:30 198 12.2
2020-Jan-19 22:15 205 0 gusting 4 12.2
2020-Jan-19 22:00 214 12.2
2020-Jan-19 21:45 216 11.7
2020-Jan-19 21:30 217 12.2
2020-Jan-19 21:15 217 12.2
2020-Jan-19 21:00 217 12.2
2020-Jan-19 20:45 217 12.2
2020-Jan-19 20:30 217 12.2
2020-Jan-19 20:15 217 12.2
2020-Jan-19 20:00 217 12.2
2020-Jan-19 19:46 217 12.2
2020-Jan-19 19:33 217 12.2
2020-Jan-19 19:17 217 12.2
2020-Jan-19 19:03 217 12.2
2020-Jan-19 18:48 217 12.2
2020-Jan-19 18:33 217 12.8
2020-Jan-19 18:17 217 12.8
2020-Jan-19 18:01 217 12.8
2020-Jan-19 17:46 217 13.3
2020-Jan-19 17:32 217 13.3
2020-Jan-19 17:16 217 13.3
2020-Jan-19 17:01 217 13.9
2020-Jan-19 16:47 217 13.9
2020-Jan-19 16:31 217 14.4
2020-Jan-19 16:17 217 14.4
2020-Jan-19 16:02 217 15.0
2020-Jan-19 15:49 217 15.0
2020-Jan-19 15:32 217 15.6
2020-Jan-19 15:17 217 16.1
2020-Jan-19 15:02 217 16.1
2020-Jan-19 14:48 217 16.1
2020-Jan-19 14:31 217 0 gusting 5 16.1
2020-Jan-19 14:17 214 0 gusting 5 16.7
2020-Jan-19 14:01 212 0 gusting 6 16.7
2020-Jan-19 13:47 219 2 gusting 6 17.2
2020-Jan-19 13:33 250 17.2
2020-Jan-19 13:16 297 17.2
2020-Jan-19 13:01 296 16.7
2020-Jan-19 12:47 296 16.7
2020-Jan-19 12:33 303 2 gusting 7 16.7
2020-Jan-19 12:17 300 2 gusting 6 16.7
2020-Jan-19 12:01 295 16.7
2020-Jan-19 11:45 302 16.1
2020-Jan-19 11:30 300 1 gusting 6 16.1
2020-Jan-19 11:16 299 0 gusting 8 16.1
2020-Jan-19 11:00 307 1 gusting 6 16.1
2020-Jan-19 10:45 300 1 gusting 6 16.1
2020-Jan-19 10:32 304 1 gusting 6 16.7
2020-Jan-19 10:15 300 1 gusting 9 16.1
2020-Jan-19 10:00 304 4 gusting 6 16.1
2020-Jan-19 09:45 302 1 gusting 5 15.6
2020-Jan-19 09:30 308 2 gusting 6 15.6
2020-Jan-19 09:16 321 1 gusting 6 15.0
2020-Jan-19 09:00 318 15.0
2020-Jan-19 08:45 316 14.4
2020-Jan-19 08:30 318 13.9
2020-Jan-19 08:15 317 0 gusting 4 13.9
2020-Jan-19 08:03 316 13.9
2020-Jan-19 07:48 315 13.3
2020-Jan-19 07:32 315 12.8
2020-Jan-19 07:17 315 12.2
2020-Jan-19 07:02 315 12.2
2020-Jan-19 06:46 315 12.2
2020-Jan-19 06:32 315 12.2
2020-Jan-19 06:16 315 12.2
2020-Jan-19 06:02 315 0 gusting 5 12.2